This demonstration page uses our WeatherBlox Daily Observations layout. Learn more.

Left ArrowRight Arrow

Hourly Observations for November 10, 2015

Temp ( °F °C ) Dew Point ( °F °C ) Humidity (%) Winds ( mph kmh ) Pressure ( in mb ) Visibility ( mi km ) Precip ( " mm )
12:51 am 00:51 Clear 48 8.9 32 undefined 54 54 N N/A 29.91 1013 10 16 N/A
1:51 am 01:51 Clear 43 6.1 32 undefined 65 65 N N/A 29.92 1013 10 16 N/A
2:51 am 02:51 Clear 43 6.1 32 undefined 65 65 SSE 3 6 29.91 1013 10 16 N/A
3:51 am 03:51 Clear 39 3.9 31 -0.6 73 73 N N/A 29.91 1013 10 16 N/A
4:51 am 04:51 Clear 46 7.8 31 -0.6 56 56 NW 5 7 29.90 1013 10 16 N/A
5:51 am 05:51 Clear 40 4.4 30 -1.1 68 68 N N/A 29.94 1014 10 16 N/A
6:51 am 06:51 Sunny 41 5 31 -0.6 67 67 NW 3 6 29.95 1014 10 16 N/A
7:51 am 07:51 Sunny 49 9.4 32 undefined 52 52 N N/A 29.96 1015 10 16 N/A
8:51 am 08:51 Sunny 56 13.3 33 0.6 42 42 VRB 3 6 29.96 1015 10 16 N/A
9:51 am 09:51 Sunny 64 17.8 27 -2.8 25 25 E 10 17 29.93 1014 10 16 N/A
10:51 am 10:51 Sunny 67 19.4 24 -4.4 20 20 VRB 6 9 29.90 1012 10 16 N/A
11:51 am 11:51 Sunny 70 21.1 24 -4.4 18 18 VRB 5 7 29.87 1012 10 16 N/A
12:51 pm 12:51 Sunny 73 22.8 21 -6.1 14 14 N N/A 29.83 1010 10 16 N/A
1:51 pm 13:51 Sunny 73 22.8 22 -5.6 15 15 WSW 10 17 29.81 1010 10 16 N/A
2:51 pm 14:51 Sunny 72 22.2 24 -4.4 17 17 WNW 23 37 29.79 1009 10 16 N/A
3:51 pm 15:51 Sunny 70 21.1 32 undefined 25 25 W 24 39 29.80 1009 10 16 N/A
4:51 pm 16:51 Sunny 61 16.1 39 3.9 44 44 NW 25 41 29.85 1011 10 16 N/A
5:51 pm 17:51 Mostly Cloudy 57 13.9 35 1.7 44 44 NNW 23 37 29.91 1013 10 16 N/A
6:51 pm 18:51 Cloudy 57 13.9 35 1.7 44 44 NNW 17 28 29.93 1014 10 16 N/A
7:51 pm 19:51 Cloudy 56 13.3 35 1.7 46 46 NNW 21 33 29.92 1013 10 16 N/A
8:51 pm 20:51 Cloudy 56 13.3 34 1.1 44 44 NW 18 30 29.94 1014 10 16 N/A
9:51 pm 21:51 Cloudy 54 12.2 27 -2.8 35 35 WNW 21 33 29.96 1015 10 16 N/A
10:51 pm 22:51 Mostly Clear 51 10.6 27 -2.8 39 39 W 15 24 29.99 1016 10 16 N/A
11:51 pm 23:51 Clear 49 9.4 28 -2.2 44 44 WNW 14 22 30.02 1017 10 16 N/A

Powered by AerisWeather